DW8791 Hull UK current weather conditions

sailwx.info

Wind from 243

Air temperature 15.6° C
Dewpoint 14.6° C

Last reported at 2019-Sep-22 20:01 UTC.
Time now 2019-Sep-22 20:27 UTC

Location: N 53°44' W 000°23'.
View on Google Maps.

See reports from other nearby stations

  
Tides and Currents Weather Stations Pressure Air Temp Water Temp Dewpoint Dewpoint Depression Visibility Wind Speed Wind Dir Waves Ship Positions
date/time (UTC)wind fromknots sea level pressurealtimeterstation pressurevisibilityair tempwater tempwave heightnotes
2019-Sep-22 20:06 243 0 gusting 1 15.6
2019-Sep-22 20:01 243 15.6
2019-Sep-22 19:46 245 15.6
2019-Sep-22 19:41 245 15.6
2019-Sep-22 19:36 245 15.6
2019-Sep-22 19:31 231 0 gusting 2 15.6
2019-Sep-22 19:16 231 15.6
2019-Sep-22 19:11 233 0 gusting 2 15.6
2019-Sep-22 19:06 295 15.6
2019-Sep-22 19:01 231 15.6
2019-Sep-22 18:46 232 15.6
2019-Sep-22 18:41 234 15.6
2019-Sep-22 18:36 304 1 gusting 7 15.6
2019-Sep-22 18:31 224 0 gusting 7 15.6
2019-Sep-22 18:16 221 2 gusting 10 16.1
2019-Sep-22 18:11 238 2 gusting 10 16.1
2019-Sep-22 18:06 223 3 gusting 6 16.7
2019-Sep-22 18:01 223 2 gusting 6 16.7
2019-Sep-22 17:46 231 2 gusting 6 16.7
2019-Sep-22 17:41 223 1 gusting 8 17.2
2019-Sep-22 17:36 232 1 gusting 8 17.2
2019-Sep-22 17:31 264 1 gusting 10 17.2
2019-Sep-22 17:16 206 5 gusting 13 18.3
2019-Sep-22 17:11 214 4 gusting 10 19.4
2019-Sep-22 17:06 217 3 gusting 8 19.4
2019-Sep-22 17:01 313 1 gusting 6 19.4
2019-Sep-22 16:46 144 2 gusting 6 20.0
2019-Sep-22 16:41 145 2 gusting 4 20.0
2019-Sep-22 16:36 144 20.0
2019-Sep-22 16:31 144 20.6
2019-Sep-22 16:16 130 0 gusting 2 20.6
2019-Sep-22 16:11 128 20.6
2019-Sep-22 16:06 128 20.6
2019-Sep-22 16:01 128 20.6
2019-Sep-22 15:46 128 20.6
2019-Sep-22 15:41 128 20.0
2019-Sep-22 15:36 128 20.0
2019-Sep-22 15:31 128 20.0
2019-Sep-22 15:16 146 0 gusting 4 19.4
2019-Sep-22 15:11 140 1 gusting 4 19.4
2019-Sep-22 15:06 157 0 gusting 2 19.4
2019-Sep-22 15:01 140 0 gusting 2 19.4
2019-Sep-22 14:46 172 0 gusting 6 19.4
2019-Sep-22 14:41 139 1 gusting 6 19.4
2019-Sep-22 14:36 145 1 gusting 6 19.4
2019-Sep-22 14:31 137 1 gusting 5 19.4
2019-Sep-22 14:16 123 1 gusting 4 19.4
2019-Sep-22 14:11 141 0 gusting 4 19.4
2019-Sep-22 14:06 147 1 gusting 6 19.4
2019-Sep-22 14:01 147 2 gusting 6 19.4
2019-Sep-22 13:46 153 0 gusting 6 19.4
2019-Sep-22 13:41 139 2 gusting 6 19.4
2019-Sep-22 13:36 141 3 gusting 6 19.4
2019-Sep-22 13:31 144 2 gusting 7 19.4
2019-Sep-22 13:16 148 3 gusting 10 18.9
2019-Sep-22 13:11 140 3 gusting 10 18.9
2019-Sep-22 13:06 142 5 gusting 10 18.9
2019-Sep-22 13:01 149 4 gusting 10 19.4
2019-Sep-22 12:46 144 4 gusting 11 19.4
2019-Sep-22 12:41 136 3 gusting 10 20.0
2019-Sep-22 12:36 146 5 gusting 10 20.0
2019-Sep-22 12:31 161 4 gusting 8 20.0
2019-Sep-22 12:16 141 6 gusting 12 20.6
2019-Sep-22 12:11 154 4 gusting 10 20.6
2019-Sep-22 12:06 154 2 gusting 6 21.1
2019-Sep-22 12:01 165 4 gusting 6 21.1
2019-Sep-22 11:46 143 3 gusting 8 21.1
2019-Sep-22 11:41 153 2 gusting 7 21.1
2019-Sep-22 11:36 147 2 gusting 7 21.1
2019-Sep-22 11:31 163 2 gusting 8 21.1
2019-Sep-22 11:16 131 2 gusting 8 21.1
2019-Sep-22 11:11 144 4 gusting 8 21.1
2019-Sep-22 11:06 153 4 gusting 8 21.7
2019-Sep-22 11:01 114 2 gusting 8 21.7
2019-Sep-22 10:46 135 5 gusting 8 21.1
2019-Sep-22 10:41 134 2 gusting 6 21.1
2019-Sep-22 10:36 144 2 gusting 6 20.6
2019-Sep-22 10:31 106 2 gusting 7 20.6
2019-Sep-22 10:16 131 1 gusting 6 20.0
2019-Sep-22 10:11 140 2 gusting 5 19.4
2019-Sep-22 10:06 155 1 gusting 6 19.4
2019-Sep-22 10:01 096 2 gusting 6 19.4
2019-Sep-22 09:46 090 2 gusting 7 18.9
2019-Sep-22 09:41 094 1 gusting 7 19.4
2019-Sep-22 09:36 113 2 gusting 7 19.4
2019-Sep-22 09:31 131 2 gusting 6 19.4
2019-Sep-22 09:16 115 2 gusting 6 18.9
2019-Sep-22 09:11 138 3 gusting 7 18.9
2019-Sep-22 09:06 154 2 gusting 7 18.9
2019-Sep-22 09:01 140 4 gusting 7 18.3
2019-Sep-22 08:46 145 3 gusting 10 18.3
2019-Sep-22 08:41 129 2 gusting 10 18.3
2019-Sep-22 08:36 138 3 gusting 7 18.3
2019-Sep-22 08:31 160 3 gusting 7 18.3
2019-Sep-22 08:16 137 2 gusting 10 17.8
2019-Sep-22 08:11 158 2 gusting 10 17.8
2019-Sep-22 08:06 149 4 gusting 10 17.8
2019-Sep-22 08:01 137 6 gusting 10 17.8
2019-Sep-22 07:46 118 4 gusting 8 17.2
2019-Sep-22 07:41 121 4 gusting 8 16.7
2019-Sep-22 07:36 112 4 gusting 7 16.1
2019-Sep-22 07:31 087 2 gusting 6 15.6
2019-Sep-22 07:16 025 14.4
2019-Sep-22 07:11 069 14.4
2019-Sep-22 07:06 077 0 gusting 2 13.9
2019-Sep-22 07:01 068 1 gusting 2 13.3
2019-Sep-22 06:46 080 0 gusting 2 12.8
2019-Sep-22 06:41 048 1 gusting 2 12.8
2019-Sep-22 06:36 042 1 gusting 2 12.2
2019-Sep-22 06:16 036 12.2
2019-Sep-22 06:11 036 11.7
2019-Sep-22 06:06 036 11.7
2019-Sep-22 06:01 036 0 gusting 2 11.7
2019-Sep-22 05:46 036 1 gusting 2 11.7
2019-Sep-22 05:41 037 1 gusting 2 11.7
2019-Sep-22 05:36 042 0 gusting 2 11.7
2019-Sep-22 05:31 044 0 gusting 1 11.7
2019-Sep-22 05:16 047 11.7
2019-Sep-22 05:11 047 11.7
2019-Sep-22 05:06 047 11.7
2019-Sep-22 05:01 047 12.2
2019-Sep-22 04:46 048 0 gusting 2 12.2
2019-Sep-22 04:41 048 0 gusting 2 12.2
2019-Sep-22 04:36 048 0 gusting 2 12.2
2019-Sep-22 04:31 048 12.2
2019-Sep-22 04:16 052 0 gusting 2 12.2
2019-Sep-22 04:11 042 1 gusting 2 12.2
2019-Sep-22 04:06 042 0 gusting 2 12.2
2019-Sep-22 04:01 042 0 gusting 2 12.2
2019-Sep-22 03:46 012 12.2
2019-Sep-22 03:41 012 12.2
2019-Sep-22 03:36 012 12.2
2019-Sep-22 03:31 012 0 gusting 1 12.2
2019-Sep-22 03:16 036 1 gusting 2 11.7
2019-Sep-22 03:11 026 0 gusting 2 11.7
2019-Sep-22 03:06 021 0 gusting 2 11.7
2019-Sep-22 03:01 321 0 gusting 1 11.7
2019-Sep-22 02:46 022 11.7
2019-Sep-22 02:41 022 0 gusting 2 11.7
2019-Sep-22 02:36 022 0 gusting 1 11.7
2019-Sep-22 02:31 022 0 gusting 2 11.7
2019-Sep-22 02:16 022 0 gusting 2 11.7
2019-Sep-22 02:11 022 0 gusting 1 11.7
2019-Sep-22 02:06 022 0 gusting 1 11.7
2019-Sep-22 02:01 022 11.7
2019-Sep-22 01:46 032 1 gusting 2 12.2
2019-Sep-22 01:41 022 1 gusting 2 12.2
2019-Sep-22 01:36 018 1 gusting 2 12.2
2019-Sep-22 01:31 007 1 gusting 2 12.2
2019-Sep-22 01:16 042 0 gusting 2 12.8
2019-Sep-22 01:11 048 0 gusting 2 12.8
2019-Sep-22 01:06 048 0 gusting 2 12.8
2019-Sep-22 01:01 048 0 gusting 2 12.8
2019-Sep-22 00:46 048 1 gusting 2 13.3
2019-Sep-22 00:41 051 0 gusting 2 13.3
2019-Sep-22 00:36 090 0 gusting 1 13.9
2019-Sep-22 00:31 101 13.9
2019-Sep-22 00:16 101 0 gusting 1 14.4
2019-Sep-22 00:11 101 0 gusting 1 15.0
2019-Sep-22 00:06 140 15.0
2019-Sep-22 00:01 140 15.0
2019-Sep-21 23:46 140 15.0
2019-Sep-21 23:41 140 15.0
2019-Sep-21 23:36 140 0 gusting 2 15.0
2019-Sep-21 23:31 140 0 gusting 2 15.6
2019-Sep-21 23:16 133 0 gusting 4 15.0
2019-Sep-21 23:11 128 0 gusting 2 15.0
2019-Sep-21 23:06 136 0 gusting 2 15.0
2019-Sep-21 23:01 136 0 gusting 2 15.0
2019-Sep-21 22:46 138 1 gusting 4 15.0
2019-Sep-21 22:41 114 0 gusting 5 15.6
2019-Sep-21 22:36 121 1 gusting 5 15.6
2019-Sep-21 22:31 102 1 gusting 2 15.6
2019-Sep-21 22:16 147 1 gusting 4 15.6
2019-Sep-21 22:11 139 0 gusting 5 15.6
2019-Sep-21 22:06 133 2 gusting 5 15.6
2019-Sep-21 22:01 143 0 gusting 4 15.6
2019-Sep-21 21:46 141 1 gusting 6 15.6
2019-Sep-21 21:41 139 1 gusting 7 15.6
2019-Sep-21 21:36 146 3 gusting 7 15.6
2019-Sep-21 21:31 135 4 gusting 10 15.6
2019-Sep-21 21:16 155 2 gusting 7 15.6
2019-Sep-21 21:11 141 4 gusting 7 15.6
2019-Sep-21 21:06 135 3 gusting 7 15.6
2019-Sep-21 21:01 144 1 gusting 7 15.6
2019-Sep-21 20:46 143 2 gusting 7 15.6
2019-Sep-21 20:41 156 2 gusting 7 15.6
2019-Sep-21 20:36 153 2 gusting 10 15.6
2019-Sep-21 20:31 151 2 gusting 10 15.6
2019-Sep-21 20:16 140 4 gusting 10 15.6
2019-Sep-21 20:11 151 4 gusting 10 16.1
2019-Sep-21 20:06 147 5 gusting 10 16.1
2019-Sep-21 20:01 147 5 gusting 10 16.1
2019-Sep-21 19:46 149 5 gusting 11 16.1
2019-Sep-21 19:41 144 4 gusting 11 16.1
2019-Sep-21 19:36 136 5 gusting 10 16.1
2019-Sep-21 19:31 147 5 gusting 10 16.1
2019-Sep-21 19:16 144 5 gusting 11 16.1
2019-Sep-21 19:11 135 4 gusting 10 16.1
2019-Sep-21 19:06 146 5 gusting 10 16.1
2019-Sep-21 19:01 139 5 gusting 11 16.1
2019-Sep-21 18:46 132 6 gusting 12 16.1
2019-Sep-21 18:41 136 5 gusting 12 16.1
2019-Sep-21 18:31 156 4 gusting 11 16.1
2019-Sep-21 18:16 146 5 gusting 13 16.1
2019-Sep-21 18:11 145 5 gusting 13 16.1
2019-Sep-21 18:06 141 5 gusting 10 16.1
2019-Sep-21 18:01 142 5 gusting 12 16.1
2019-Sep-21 17:46 143 7 gusting 13 16.1
2019-Sep-21 17:41 140 6 gusting 13 16.1
2019-Sep-21 17:36 152 6 gusting 13 16.1
2019-Sep-21 17:31 144 8 gusting 13 16.1
2019-Sep-21 17:16 144 7 gusting 17 16.7
2019-Sep-21 17:11 152 6 gusting 17 16.7
2019-Sep-21 17:06 142 7 gusting 14 16.7
2019-Sep-21 17:01 144 5 gusting 19 16.7
2019-Sep-21 16:46 161 7 gusting 17 16.7
2019-Sep-21 16:41 143 8 gusting 17 17.2
2019-Sep-21 16:36 159 6 gusting 15 17.2
2019-Sep-21 16:31 146 6 gusting 15 17.2
2019-Sep-21 16:16 162 7 gusting 14 17.2
2019-Sep-21 16:11 157 7 gusting 17 17.2
2019-Sep-21 16:06 166 5 gusting 17 17.2
2019-Sep-21 16:01 137 6 gusting 17 17.8
2019-Sep-21 15:46 161 7 gusting 17 17.8
2019-Sep-21 15:41 157 8 gusting 15 17.8
2019-Sep-21 15:36 155 10 gusting 15 17.8
2019-Sep-21 15:31 157 6 gusting 17 17.8
2019-Sep-21 15:16 135 5 gusting 13 18.3
2019-Sep-21 15:11 147 6 gusting 13 18.3
2019-Sep-21 15:06 159 6 gusting 13 18.3
2019-Sep-21 15:01 144 7 gusting 13 18.3
2019-Sep-21 14:46 149 6 gusting 18 18.3
2019-Sep-21 14:41 152 6 gusting 13 18.3
2019-Sep-21 14:36 150 7 gusting 13 18.3
2019-Sep-21 14:31 161 7 gusting 15 18.9
2019-Sep-21 14:16 135 9 gusting 14 18.9
2019-Sep-21 14:11 146 7 gusting 14 18.9
2019-Sep-21 14:06 155 5 gusting 14 18.9
2019-Sep-21 14:01 121 6 gusting 14 18.9
2019-Sep-21 13:46 123 6 gusting 13 18.9
2019-Sep-21 13:41 146 7 gusting 14 18.9
2019-Sep-21 13:36 144 7 gusting 14 18.9
2019-Sep-21 13:31 149 6 gusting 15 18.9
2019-Sep-21 13:16 152 8 gusting 17 18.9
2019-Sep-21 13:11 130 5 gusting 17 18.9
2019-Sep-21 13:06 144 6 gusting 13 18.9
2019-Sep-21 13:01 139 6 gusting 14 18.9
2019-Sep-21 12:46 140 5 gusting 14 18.9
2019-Sep-21 12:41 137 7 gusting 14 18.9
2019-Sep-21 12:36 136 7 gusting 13 18.9
2019-Sep-21 12:31 137 7 gusting 13 18.9
2019-Sep-21 12:16 140 7 gusting 13 18.9
2019-Sep-21 12:11 118 5 gusting 13 18.9
2019-Sep-21 12:06 134 6 gusting 13 18.9
2019-Sep-21 12:01 130 5 gusting 14 18.9
2019-Sep-21 11:46 156 6 gusting 13 18.9
2019-Sep-21 11:41 131 7 gusting 13 18.9
2019-Sep-21 11:36 142 6 gusting 13 18.9
2019-Sep-21 11:31 136 6 gusting 13 18.9
2019-Sep-21 11:16 148 6 gusting 13 18.3
2019-Sep-21 11:11 136 6 gusting 15 18.3
2019-Sep-21 11:06 141 6 gusting 15 18.3
2019-Sep-21 11:01 140 6 gusting 13 18.3
2019-Sep-21 10:46 150 8 gusting 15 18.3
2019-Sep-21 10:41 137 6 gusting 13 18.3
2019-Sep-21 10:36 128 6 gusting 13 18.3
2019-Sep-21 10:31 133 5 gusting 13 18.3
2019-Sep-21 10:16 138 8 gusting 14 17.8
2019-Sep-21 10:11 153 7 gusting 14 17.8
2019-Sep-21 10:06 138 6 gusting 18 17.8
2019-Sep-21 10:01 127 8 gusting 18 17.8
2019-Sep-21 09:46 141 5 gusting 12 17.8
2019-Sep-21 09:41 152 6 gusting 13 17.8
2019-Sep-21 09:36 149 6 gusting 13 17.8
2019-Sep-21 09:31 144 7 gusting 17 17.8
2019-Sep-21 09:16 137 6 gusting 14 17.2
2019-Sep-21 09:11 150 7 gusting 14 17.2
2019-Sep-21 09:06 151 6 gusting 14 17.2
2019-Sep-21 09:01 144 5 gusting 13 17.2
2019-Sep-21 08:46 146 6 gusting 17 17.2
2019-Sep-21 08:41 150 5 gusting 15 17.2
2019-Sep-21 08:36 154 6 gusting 15 17.2
2019-Sep-21 08:31 148 6 gusting 13 16.7
2019-Sep-21 08:16 149 6 gusting 10 16.7
2019-Sep-21 08:11 147 4 gusting 11 16.7
2019-Sep-21 08:06 133 5 gusting 11 16.7
2019-Sep-21 08:01 158 4 gusting 10 16.7
2019-Sep-21 07:46 150 4 gusting 7 16.1
2019-Sep-21 07:41 141 1 gusting 6 16.1
2019-Sep-21 07:36 111 0 gusting 5 15.6
2019-Sep-21 07:31 133 15.6
2019-Sep-21 07:16 158 0 gusting 4 15.0
2019-Sep-21 07:11 160 0 gusting 5 15.0
2019-Sep-21 07:06 152 2 gusting 6 15.0
2019-Sep-21 07:01 144 1 gusting 6 15.0
2019-Sep-21 06:46 113 2 gusting 6 14.4
2019-Sep-21 06:41 130 1 gusting 2 14.4
2019-Sep-21 06:36 150 0 gusting 2 13.9
2019-Sep-21 06:31 140 0 gusting 2 13.9
2019-Sep-21 06:16 126 1 gusting 6 13.9
2019-Sep-21 06:11 120 2 gusting 6 13.9
2019-Sep-21 06:06 134 2 gusting 6 13.9
2019-Sep-21 06:01 125 2 gusting 6 13.9
2019-Sep-21 05:46 136 1 gusting 6 13.9
2019-Sep-21 05:41 128 1 gusting 6 13.9
2019-Sep-21 05:36 125 1 gusting 6 13.9
2019-Sep-21 05:31 145 2 gusting 6 13.9
2019-Sep-21 05:16 121 1 gusting 6 13.9
2019-Sep-21 05:11 151 1 gusting 6 13.9
2019-Sep-21 05:06 136 1 gusting 6 13.9
2019-Sep-21 05:01 126 1 gusting 6 13.9
2019-Sep-21 04:46 143 1 gusting 7 13.9
2019-Sep-21 04:41 131 2 gusting 7 14.4
2019-Sep-21 04:36 135 3 gusting 7 14.4
2019-Sep-21 04:31 119 1 gusting 6 14.4
2019-Sep-21 04:16 138 2 gusting 6 14.4
2019-Sep-21 04:11 141 0 gusting 4 14.4
2019-Sep-21 04:06 136 1 gusting 2 14.4
2019-Sep-21 04:01 141 1 gusting 2 14.4
2019-Sep-21 03:46 115 1 gusting 6 14.4
2019-Sep-21 03:41 132 2 gusting 7 14.4
2019-Sep-21 03:36 123 2 gusting 7 14.4
2019-Sep-21 03:31 151 1 gusting 7 14.4
2019-Sep-21 03:16 148 1 gusting 6 14.4
2019-Sep-21 03:11 136 1 gusting 6 14.4
2019-Sep-21 03:06 139 2 gusting 6 14.4
2019-Sep-21 03:01 145 1 gusting 7 14.4
2019-Sep-21 02:46 150 1 gusting 5 14.4
2019-Sep-21 02:41 125 2 gusting 5 14.4
2019-Sep-21 02:36 154 1 gusting 6 14.4
2019-Sep-21 02:31 142 1 gusting 6 14.4
2019-Sep-21 02:16 150 0 gusting 6 14.4
2019-Sep-21 02:11 141 1 gusting 7 14.4
2019-Sep-21 02:06 109 2 gusting 7 14.4
2019-Sep-21 02:01 151 2 gusting 7 14.4
2019-Sep-21 01:46 159 1 gusting 6 14.4
2019-Sep-21 01:41 110 0 gusting 6 14.4
2019-Sep-21 01:36 123 1 gusting 6 14.4
2019-Sep-21 01:31 136 1 gusting 2 14.4
2019-Sep-21 01:16 098 0 gusting 2 14.4
2019-Sep-21 01:11 137 0 gusting 6 14.4
2019-Sep-21 01:06 134 2 gusting 6 15.0
2019-Sep-21 01:01 144 1 gusting 7 15.0
2019-Sep-21 00:46 151 2 gusting 7 14.4
2019-Sep-21 00:41 140 4 gusting 7 14.4
2019-Sep-21 00:36 147 2 gusting 7 14.4
2019-Sep-21 00:31 138 5 gusting 7 14.4
2019-Sep-21 00:16 152 1 gusting 7 14.4
2019-Sep-21 00:11 144 3 gusting 7 14.4
2019-Sep-21 00:06 156 2 gusting 8 14.4
2019-Sep-21 00:01 140 2 gusting 8 14.4
2019-Sep-20 23:46 162 2 gusting 10 14.4
2019-Sep-20 23:41 165 4 gusting 10 14.4
2019-Sep-20 23:36 141 2 gusting 7 14.4
2019-Sep-20 23:31 170 2 gusting 8 14.4
2019-Sep-20 23:16 157 2 gusting 6 14.4
2019-Sep-20 23:11 156 2 gusting 7 14.4
2019-Sep-20 23:06 147 3 gusting 7 14.4
2019-Sep-20 23:01 149 2 gusting 7 14.4
2019-Sep-20 22:46 157 3 gusting 7 14.4
2019-Sep-20 22:41 136 4 gusting 8 14.4
2019-Sep-20 22:36 152 3 gusting 8 14.4
2019-Sep-20 22:31 151 4 gusting 10 14.4
2019-Sep-20 22:16 147 2 gusting 8 14.4
2019-Sep-20 22:11 145 2 gusting 8 14.4
2019-Sep-20 22:06 161 5 gusting 10 14.4
2019-Sep-20 22:01 145 6 gusting 10 14.4
2019-Sep-20 21:46 150 3 gusting 10 15.0
2019-Sep-20 21:41 143 2 gusting 10 15.0
2019-Sep-20 21:36 154 4 gusting 12 15.0
2019-Sep-20 21:31 151 2 gusting 12 15.0
2019-Sep-20 21:16 151 4 gusting 13 15.0
2019-Sep-20 21:11 137 6 gusting 13 15.0
2019-Sep-20 21:06 157 4 gusting 13 15.0
2019-Sep-20 21:01 155 4 gusting 13 15.0
2019-Sep-20 20:46 148 5 gusting 10 15.0
2019-Sep-20 20:41 156 5 gusting 11 15.0
2019-Sep-20 20:36 142 4 gusting 12 15.0
2019-Sep-20 20:31 157 4 gusting 12 15.0
2019-Sep-20 20:16 152 6 gusting 10 15.0
2019-Sep-20 20:11 157 4 gusting 11 15.0
2019-Sep-20 20:06 145 2 gusting 12 15.0
2019-Sep-20 20:01 140 5 gusting 12 15.0